Home   Weather   Chandler   Past weeks
Flag for USA

Past Weather in Chandler, Arizona, USA — Yesterday and Last 2 Weeks

Now
56 °F

Clear.


Feels Like: 54 °F
Forecast: 82 / 57 °F
Wind: 10 mph from Southeast

Location: Phoenix–Mesa Gateway Airport

Current Time: Mar 20, 2019 at 4:36:34 am

Latest Report: Mar 20, 2019 at 4:15 am


Visibility: 10 mi

Pressure: 29.95 "Hg

Humidity: 60%

Dew Point: 42 °F

Location of ChandlerLocation

Past Weather in Chandler — Graph

°F

Chandler Temperature Yesterday

Maximum temperature yesterday: 82 °F (at 1:47 pm)
Minimum temperature yesterday: 52 °F (at 3:55 am)
Average temperature yesterday: 64 °F

High & Low Weather Summary for the Past Weeks

 TemperatureHumidityPressure
High82 °F (Mar 6, 2:47 pm)100% (Mar 12, 4:47 am)30.19 "Hg (Mar 12, 4:47 am)
Low37 °F (Mar 14, 4:35 am)15% (Mar 18, 4:47 pm)29.72 "Hg (Mar 12, 2:47 pm)
Average58 °F53%29.96 "Hg
* Reported Mar 5 3:15 am — Mar 20 3:35 am, Chandler. Weather by CustomWeather, © 2019

Note: Actual official high and low records may vary slightly from our data, if they occured in-between our weather recording intervals... More about our weather records

Advertising

Chandler Weather History for the Previous 24 Hours

Scroll right to see more
 ConditionsComfort  
Time TempWeatherWind HumidityBarometerVisibility
3:35 am
Wed, Mar 20
55 °FClear.8 mph66%29.94 "Hg10 mi
3:15 am56 °FClear.8 mph61%29.94 "Hg10 mi
2:55 am56 °FClear.8 mph63%29.95 "Hg10 mi
2:35 am57 °FClear.8 mph60%29.95 "Hg10 mi
2:15 am58 °FClear.9 mph58%29.95 "Hg10 mi
1:55 am58 °FClear.9 mph57%29.95 "Hg10 mi
1:35 am59 °FClear.9 mph57%29.95 "Hg10 mi
1:15 am58 °FClear.10 mph60%29.95 "Hg10 mi
12:55 am60 °FClear.10 mph56%29.95 "Hg10 mi
12:35 am62 °FClear.8 mph48%29.95 "Hg10 mi
12:15 am63 °FClear.5 mph45%29.96 "Hg10 mi
11:47 pm
Tue, Mar 19
61 °FClear.8 mph55%29.96 "Hg20 mi
10:47 pm63 °FClear.7 mph52%29.94 "Hg20 mi
9:47 pm64 °FClear.8 mph52%29.93 "Hg20 mi
8:50 pm68 °FPassing clouds.6 mph40%29.92 "Hg20 mi
7:47 pm73 °FPassing clouds.5 mph29%29.91 "Hg20 mi
6:47 pm77 °FPassing clouds.5 mph24%29.90 "Hg20 mi
5:47 pm81 °FScattered clouds.3 mph20%29.90 "Hg30 mi
4:47 pm81 °FScattered clouds.3 mph21%29.90 "Hg45 mi
3:47 pm81 °FScattered clouds.3 mph18%29.92 "Hg45 mi
2:51 pm82 °FScattered clouds.7 mph19%29.94 "Hg45 mi
1:47 pm82 °FScattered clouds.7 mph20%29.95 "Hg45 mi
12:47 pm79 °FScattered clouds.6 mph23%29.99 "Hg45 mi
11:47 am77 °FScattered clouds.5 mph24%30.01 "Hg45 mi
10:49 am73 °FScattered clouds.No wind31%30.03 "Hg45 mi
9:47 am70 °FScattered clouds.No wind38%30.04 "Hg45 mi
8:47 am63 °FPartly sunny.No wind49%30.04 "Hg45 mi
7:47 am57 °FScattered clouds.No wind55%30.03 "Hg45 mi
6:47 am54 °FScattered clouds.3 mph63%30.00 "Hg45 mi
5:50 am55 °FClear.3 mph55%29.99 "Hg30 mi
4:54 am54 °FClear.5 mph58%29.98 "Hg20 mi
4:35 am54 °FClear.5 mph61%29.98 "Hg10 mi
4:15 am54 °FClear.9 mph61%29.97 "Hg10 mi
Weather by CustomWeather, © 2019

See weather overview